Regional Weather Roundup
Issued by NWS Midland/Odessa, TX

Current Version | Previous Version | Text Only | Print | Product List | Glossary On
Versions: 1 2 3 4 5 6 7 8 9 10 11 12 13 14 15 16 17 18 19 20 21 22 23 24 25 26 27 28 29 30 31 32 33 34 35 36 37 38 39 40 41 42 43 44 45 46 47 48 49 50
436
ASUS44 KMAF 201810
RWRMAF
MIDLAND AREA WEATHER ROUNDUP
NATIONAL WEATHER SERVICE MIDLAND TX
100 PM CDT TUE AUG 20 2019

...IN SOUTHWEST TEXAS AND SOUTHEAST NEW MEXICO...

CITY           SKY/WX    TMP DP  RH WIND       PRES   REMARKS
ALPINE         FAIR      89  53  29 SW3       30.24S
ANDREWS        FAIR      93  60  33 S8        30.12S
ARTESIA        FAIR      88  63  42 S8        30.14
BIG SPRING     NOT AVBL
CARLSBAD       FAIR      91  62  37 SE7       30.09F
DRYDEN           N/A     95  65  37 SE13G20   30.04F
FORT STOCKTON  FAIR      92  61  35 SE14G22   30.09F
GUAD PASS      FAIR      88  54  31 E9        30.26F
HOBBS          MOSUNNY   93  55  27 S10G18    30.13F
LAMESA         NOT AVBL
MARFA          FAIR      87  53  31 S9        30.22F
MIDLAND AIRPK  FAIR      92  62  36 SE10      30.10S
MIDLAND INTL   FAIR      94  63  35 SE10G21   30.09F
ODESSA         FAIR      92  60  34 S10G17    30.11F
PECOS          FAIR      97  54  23 SE6       30.04F
PRESIDIO       FAIR      94  58  29 E6        30.07F
SEMINOLE       FAIR      92  58  32 S10       30.17S
SNYDER         FAIR      92  64  39 SE7G18    30.10F
WINK           FAIR      95  55  26 SE15G22   30.06F
$$
...OTHER STATIONS IN TEXAS...

CITY           SKY/WX    TMP DP  RH WIND       PRES   REMARKS
ABILENE        FAIR      95  66  38 S14       30.07F
AMARILLO       FAIR      93  54  26 SW15      30.12F
AUSTIN         PTSUNNY   93  70  46 S7        30.03F
BROWNSVILLE    FAIR      97  75  49 E14G23    29.99F HX 109
CORPUS CHRISTI PTSUNNY   94  71  47 S13G21    30.01S HX 101
DALLAS FTW     FAIR      96  70  42 S8        30.01F HX 102
DEL RIO        FAIR      94  70  45 SE12G20   30.00F HX 100
EL PASO        FAIR      93  54  26 VRB3      30.11F
HOUSTON INT    HVY RAIN  77  74  90 SE10      30.04R FOG
LUBBOCK        FAIR      92  60  34 VRB5      30.13F
SAN ANGELO     PTSUNNY   97  65  34 SE8       30.06F
SAN ANTONIO    FAIR      92  67  43 S6        30.05F
WACO           FAIR      96  70  42 VRB5      30.02F HX 102
WICHITA FALLS  FAIR      97  71  42 S15       29.96F HX 104
$$
...OTHER LOCATIONS IN NEW MEXICO...

CITY           SKY/WX    TMP DP  RH WIND       PRES   REMARKS
ALAMOGORDO     FAIR      90  54  29 N5        30.15
ALBUQUERQUE    PTSUNNY   84  49  29 SW6       30.23F
CANNON AFB     CLOUDY    86  59  40 S6        30.20F
CLOVIS         FAIR      85  62  46 SE10      30.20F
HOLLOMAN AFB   FAIR      92  55  28 N6        30.15
ROSWELL        FAIR      90  60  36 SW5       30.13F
RUIDOSO        FAIR      73  52  46 SE13G21   30.40
SANTA FE       FAIR      85  42  22 CALM      30.29F
TRUTH OR CONSE PTSUNNY   91  49  23 S8        30.17F
TUCUMCARI      FAIR      96  55  25 SW18      30.12F
$$




USA.gov is the U.S. government's official web portal to all federal, state and local government web resources and services.